This is the latest recevied weather packets stored in our database for station/object KC5DP. If no packets are shown the sender has not sent any weather packets the latest 10 day(s).
| Time | Temp. | Humidity | Pressure | Rain* | Wind** | Luminosity | Snow |
|---|---|---|---|---|---|---|---|
| 1777734225 | 18.33° C | 79% | 1016.2 hPa | 0 mm | - | 539 W/m² | - |
| 1777733921 | 17.78° C | 79% | 1016.1 hPa | 0 mm | - | 524 W/m² | - |
| 1777733618 | 17.78° C | 75% | 1016.1 hPa | 0 mm | - | 422 W/m² | - |
| 1777733315 | 17.78° C | 78% | 1016.1 hPa | 0 mm | - | 512 W/m² | - |
| 1777733012 | 17.22° C | 78% | 1016 hPa | 0 mm | - | 485 W/m² | - |
| 1777732708 | 17.22° C | 81% | 1016.1 hPa | 0 mm | - | 110 W/m² | - |
| 1777732405 | 17.22° C | 82% | 1015.9 hPa | 0 mm | - | 471 W/m² | - |
| 1777732103 | 17.22° C | 82% | 1015.8 hPa | 0 mm | - | 439 W/m² | - |
| 1777731799 | 17.22° C | 81% | 1015.9 hPa | 0 mm | - | 420 W/m² | - |
| 1777731496 | 16.67° C | 82% | 1015.7 hPa | 0 mm | - | 406 W/m² | - |
| 1777731195 | 16.67° C | 85% | 1015.6 hPa | 0 mm | - | 391 W/m² | - |
| 1777730892 | 16.11° C | 84% | 1015.5 hPa | 0 mm | - | 381 W/m² | - |
| 1777730589 | 16.11° C | 86% | 1015.6 hPa | 0 mm | - | 358 W/m² | - |
| 1777730285 | 16.11° C | 87% | 1015.5 hPa | 0 mm | - | 406 W/m² | - |
| 1777729982 | 15.56° C | 87% | 1015.5 hPa | 0 mm | - | 240 W/m² | - |
| 1777729678 | 15° C | 90% | 1015.5 hPa | 0 mm | - | 233 W/m² | - |
| 1777729375 | 15° C | 90% | 1015.5 hPa | 0 mm | - | 233 W/m² | - |
| 1777729071 | 15° C | 90% | 1015.5 hPa | 0 mm | - | 233 W/m² | - |
| 1777728768 | 14.44° C | 93% | 1015.5 hPa | 0 mm | - | 256 W/m² | - |
| 1777728465 | 14.44° C | 96% | 1015.4 hPa | 0 mm | - | 242 W/m² | - |
| 1777728162 | 13.33° C | 98% | 1015.4 hPa | 0 mm | - | 209 W/m² | - |
| 1777727859 | 13.89° C | 99% | 1015.4 hPa | 0 mm | - | 209 W/m² | - |
| 1777727557 | 13.33° C | 99% | 1015.4 hPa | 0 mm | - | 196 W/m² | - |
| 1777727254 | 12.78° C | 99% | 1015.3 hPa | 0 mm | - | 65 W/m² | - |
| 1777726951 | 12.78° C | 99% | 1015.3 hPa | 0 mm | - | 65 W/m² | - |
* Rain latest hour (hover to see other rain measurements)
** Current wind speed in m/s (hover to see current wind gust speed)